留迴響!送好獎! "車廠精品"週週送! 快來「活動快遞」留言!!

目前分類:車市新聞 (168)

瀏覽方式: 標題列表 簡短摘要
發表時間 文章標題 人氣 留言
2009-12-14 【2010台北車展】「豪門氣度 極致動能」 Subaru秀出品牌新定位 (658) (1)
2009-12-14 【2010台北車展】馳騁豪華LSUV極速顛峰 Range Rover Sport 2010年式‧剽悍上路 (420) (0)
2009-12-14 【2010台北車展】smart fortwo mhd 微型油電混合車 都會行動指標 引領潮流 (444) (0)
2009-12-14 【2010台北車展】駕馭之尊 完美之座 JAGUAR All New XJ亞洲首展 (279) (0)
2009-12-14 【2010台北車展】樂在 BMW 體驗盡興揮灑的駕乘樂趣 (536) (0)
2009-12-14 【2010台北車展】NISSAN CUBE引領創新風格 台北車展首度亮相 (799) (1)
2009-12-14 【2010台北車展】走進Honda 感受『Green & Fun for Everyone』 (302) (0)
2009-12-12 【2010台北車展】MITSUBISHI 清新感受,展現環保、科技零距離 (175) (0)
2009-12-12 【2010台北車展】PEUGEOT 節能動力綠色科技,法式浪漫風情即將抵台 (318) (0)
2009-12-12 【2010台北車展】現代名模亮眼登場 驚人實力掀起車壇精緻革命風潮 (461) (0)
2009-12-12 【2010台北車展】Ford名模名模吸睛亮相 完美呈現歐風家族Kinetic Design動感美學魅力! (569) (0)
2009-04-21 上海國際車展 Audi發表小改款Q7 (371) (0)
2009-04-21 上海國際車展 FORD iosis MAX概念車亞洲首發 (431) (0)
2009-04-14 Porsche 全新Panamera 4/20上海車展首演! (173) (0)
2009-04-09 MAZDA混合動力新作 Premacy Hydrogen RE Hybrid日本掛牌上路 (441) (0)
2009-03-23 全新BMW Z4硬頂敞篷跑車 第二季末登台 (1440) (0)
2009-03-20 第六代NISSAN 370Z全新上市 限量40台 (400) (0)
2009-03-20 LAND ROVER Freelander 2 TD4專案優惠 加贈原廠專業配件 (1227) (0)
2009-03-20 2009首爾車展 SsangYong C200、Kyron Hybrid攜手登台 (205) (0)
2009-03-19 Audi全功能旗艦中心 提供零時差體驗 (378) (0)
2009-03-19 MITSUBISHI COLT PLUS 3月份購車就送Eee PC小筆電 (291) (0)
2009-03-19 2009年 "賓士主動安全操控體驗營"報名起跑 (162) (0)
2009-03-17 '09 Volvo V50 D5 R-DESIGN 原廠北歐風格套件 限量20台 (1124) (0)
2009-03-15 2009 BMW兒童交通安全體驗營 (561) (0)
2009-03-14 Audi R8超級跑車首度在台亮相 台灣奧迪汽車掛牌營運 (538) (0)
2009-03-13 PEUGEOT 晴雨窗配件優惠活動 (139) (0)
2009-03-13 全台唯一 PEUGEOT 207 CC 帕德嫩白版 白色情人節亮相 (845) (1)
2009-03-12 2009 FORD QualityCare Car SPA 春季健檢正式啟動 (111) (0)
2009-03-08 smart fortwo勇闖巴黎 尋找粉紅豹美鑽 (275) (0)
2009-03-07 Mitsubishi EVO X 獲加拿大記協頒發年度最佳新科技大獎 (297) (0)
2009-03-07 Audi Taiwan成立 入主A3、A4及Q7加贈乙式全險 (244) (0)
2009-03-05 2009日內瓦車展 FORD發表IOSIS MAX概念車款 (218) (0)
2009-03-04 TOYOTA New Camry 3月3日全新上市 (911) (0)
2009-03-04 2009日內瓦車展 FORD多款新車發表!! (293) (0)
2009-03-02 3/2~3/8 留迴響!送好獎! "車廠精品"周周送! (87) (3)
2009-02-11 2009芝加哥車展 FORD推多款2010年式全新概念車 (296) (0)
2009-02-11 Hyundai i 系列 兼具環保與性能的跨世代概念車 (194) (0)
2009-02-07 BabyBoss 小朋友巧扮MITSUBISHI一日技師 (237) (0)
2009-02-06 2009年達卡「死亡拉力」 雙龍汽車副駕駛Isidre Esteve 成為拉力賽史上第一位完賽的身障車手 (203) (0)
2009-02-04 全新Porsche 911 GT3 3/3日內瓦車展正式發表 (161) (0)
2009-02-03 BMW 榮獲「2009消費者理想品牌調查」汽車類No.1 (383) (0)
2009-01-24 福特推出Ford FocusPowershift 2.0 高效能汽油車款 (713) (0)
2009-01-24 Lamborghini 底特律車展展出Ad Personam 提供個人化客製服務 (515) (0)
2009-01-24 到中華三菱加裝e通機 原價1199,2/2前只要700元 (138) (0)
2009-01-24 PEUGEOT 消費券獅倍秀 最高折現超過21萬元 (125) (0)
2009-01-24 FORD QualityCare 農曆春節服務不間斷 (111) (0)
2009-01-24 現代汽車 春節專業服務不打烊 (357) (1)
2009-01-24 FORD四年內 將推多款新世代環保車 (735) (0)
2009-01-24 BMW/MINI 春節營業時間 (158) (0)
2009-01-24 Volkswagen農曆春節服務不打烊 賞車還可抽大獎 (117) (0)
1 234
找更多相關文章與討論